When you browse on this site, cookies collect data to enhance your experience and personalize the content and advertising you see.
Visit our Privacy Policy to learn more. By continuing to use the site, you agree to this use of cookies and data.

Meteo pe oră la Khmil'nyk

Astăzi, 11 August, Marţi

Timp Temperatura Precipitaţii Vânt Presiune Umiditate
00:00 +19°C° 0 mm 1 m/s 737 mmHg 85%
01:00 +17°C° 0 mm 2 m/s 737 mmHg 86%
02:00 +17°C° 0 mm 2 m/s 737 mmHg 87%
03:00 +17°C° 0 mm 2 m/s 737 mmHg 87%
04:00 +16°C° 0 mm 2 m/s 737 mmHg 88%
05:00 +16°C° 0 mm 2 m/s 737 mmHg 88%
06:00 +18°C° 0 mm 2 m/s 737 mmHg 83%
07:00 +20°C° 0 mm 2 m/s 737 mmHg 77%
08:00 +21°C° 0 mm 2 m/s 738 mmHg 70%
09:00 +24°C° 0.3 mm 2 m/s 738 mmHg 67%
10:00 +25°C° 0.3 mm 2 m/s 738 mmHg 63%
11:00 +26°C° 0.3 mm 3 m/s 738 mmHg 60%
12:00 +26°C° 0.4 mm 2 m/s 738 mmHg 58%
13:00 +27°C° 0.4 mm 2 m/s 738 mmHg 56%
14:00 +27°C° 0.4 mm 2 m/s 737 mmHg 54%
15:00 +27°C° 0.6 mm 2 m/s 737 mmHg 58%
16:00 +26°C° 0.6 mm 2 m/s 737 mmHg 62%
17:00 +26°C° 0.6 mm 2 m/s 737 mmHg 66%
18:00 +24°C° 0.3 mm 2 m/s 737 mmHg 71%
19:00 +23°C° 0.3 mm 2 m/s 737 mmHg 76%
20:00 +20°C° 0.3 mm 2 m/s 737 mmHg 81%
21:00 +20°C° 0.3 mm 2 m/s 737 mmHg 83%
22:00 +19°C° 0.3 mm 2 m/s 737 mmHg 86%
23:00 +18°C° 0.3 mm 2 m/s 737 mmHg 89%

Mâine, 12 August, Miercuri

Timp Temperatura Precipitaţii Vânt Presiune Umiditate
00:00 +18°C° 0.1 mm 2 m/s 737 mmHg 91%
01:00 +17°C° 0.1 mm 2 m/s 737 mmHg 93%
02:00 +17°C° 0.1 mm 2 m/s 737 mmHg 94%
03:00 +16°C° 0 mm 2 m/s 737 mmHg 96%
04:00 +16°C° 0 mm 3 m/s 737 mmHg 97%
05:00 +14°C° 0 mm 3 m/s 737 mmHg 98%
06:00 +16°C° 0 mm 3 m/s 738 mmHg 94%
07:00 +17°C° 0 mm 4 m/s 738 mmHg 89%
08:00 +17°C° 0 mm 4 m/s 738 mmHg 85%
09:00 +19°C° 0 mm 4 m/s 738 mmHg 78%
10:00 +20°C° 0 mm 4 m/s 738 mmHg 70%
11:00 +21°C° 0 mm 5 m/s 739 mmHg 63%
12:00 +21°C° 0 mm 5 m/s 739 mmHg 61%
13:00 +21°C° 0 mm 5 m/s 739 mmHg 59%
14:00 +22°C° 0 mm 5 m/s 739 mmHg 57%
15:00 +21°C° 0 mm 4 m/s 739 mmHg 58%
16:00 +21°C° 0 mm 4 m/s 739 mmHg 58%
17:00 +21°C° 0 mm 4 m/s 739 mmHg 59%
18:00 +19°C° 0 mm 3 m/s 739 mmHg 65%
19:00 +17°C° 0 mm 3 m/s 739 mmHg 70%
20:00 +16°C° 0 mm 2 m/s 739 mmHg 76%
21:00 +15°C° 0 mm 2 m/s 739 mmHg 78%
22:00 +14°C° 0 mm 2 m/s 740 mmHg 80%
23:00 +14°C° 0 mm 2 m/s 740 mmHg 81%

Poimâine, 13 August, Joi

Timp Temperatura Precipitaţii Vânt Presiune Umiditate
00:00 +13°C° 0 mm 2 m/s 740 mmHg 84%
01:00 +13°C° 0 mm 2 m/s 740 mmHg 87%
02:00 +12°C° 0 mm 1 m/s 740 mmHg 89%
03:00 +12°C° 0 mm 1 m/s 739 mmHg 90%
04:00 +12°C° 0 mm 1 m/s 739 mmHg 90%
05:00 +11°C° 0 mm 1 m/s 739 mmHg 91%
06:00 +13°C° 0 mm 1 m/s 739 mmHg 84%
07:00 +15°C° 0 mm 2 m/s 740 mmHg 77%
08:00 +16°C° 0 mm 2 m/s 740 mmHg 70%
09:00 +18°C° 0 mm 2 m/s 740 mmHg 64%
10:00 +19°C° 0 mm 2 m/s 740 mmHg 59%
11:00 +20°C° 0 mm 2 m/s 740 mmHg 53%
12:00 +21°C° 0 mm 2 m/s 740 mmHg 52%
13:00 +21°C° 0 mm 2 m/s 739 mmHg 50%
14:00 +23°C° 0 mm 2 m/s 739 mmHg 49%
15:00 +23°C° 0 mm 2 m/s 739 mmHg 51%
16:00 +21°C° 0 mm 2 m/s 739 mmHg 52%
17:00 +21°C° 0 mm 2 m/s 738 mmHg 54%
18:00 +19°C° 0 mm 2 m/s 738 mmHg 62%
19:00 +18°C° 0 mm 2 m/s 738 mmHg 70%
20:00 +16°C° 0 mm 2 m/s 738 mmHg 77%
21:00 +15°C° 0 mm 1 m/s 738 mmHg 80%
22:00 +14°C° 0 mm 1 m/s 738 mmHg 82%
23:00 +13°C° 0 mm 0 m/s 738 mmHg 84%

14 August, Vineri

Timp Temperatura Precipitaţii Vânt Presiune Umiditate
00:00 +12°C° 0 mm 0 m/s 738 mmHg 85%
01:00 +12°C° 0 mm 0 m/s 738 mmHg 86%
02:00 +13°C° 0 mm 1 m/s 738 mmHg 87%
03:00 +12°C° 0 mm 1 m/s 738 mmHg 88%
04:00 +12°C° 0 mm 1 m/s 738 mmHg 88%
05:00 +12°C° 0 mm 1 m/s 738 mmHg 89%
06:00 +14°C° 0 mm 1 m/s 738 mmHg 82%
07:00 +15°C° 0 mm 1 m/s 738 mmHg 76%
08:00 +18°C° 0 mm 1 m/s 738 mmHg 70%
09:00 +19°C° 0 mm 1 m/s 738 mmHg 65%
10:00 +21°C° 0 mm 1 m/s 739 mmHg 60%
11:00 +21°C° 0 mm 2 m/s 739 mmHg 55%
12:00 +22°C° 0 mm 1 m/s 738 mmHg 53%
13:00 +23°C° 0 mm 1 m/s 738 mmHg 51%
14:00 +23°C° 0 mm 1 m/s 738 mmHg 50%
15:00 +23°C° 0 mm 1 m/s 738 mmHg 50%
16:00 +23°C° 0 mm 1 m/s 738 mmHg 50%
17:00 +23°C° 0 mm 2 m/s 737 mmHg 50%
18:00 +20°C° 0 mm 2 m/s 737 mmHg 56%
19:00 +18°C° 0 mm 2 m/s 737 mmHg 62%
20:00 +17°C° 0 mm 2 m/s 737 mmHg 68%
21:00 +16°C° 0 mm 2 m/s 738 mmHg 70%
22:00 +15°C° 0 mm 2 m/s 738 mmHg 71%
23:00 +15°C° 0 mm 2 m/s 738 mmHg 73%

15 August, Sâmbătă

Timp Temperatura Precipitaţii Vânt Presiune Umiditate
00:00 +14°C° 0 mm 2 m/s 738 mmHg 75%
01:00 +14°C° 0 mm 2 m/s 738 mmHg 78%
02:00 +13°C° 0 mm 2 m/s 738 mmHg 80%
03:00 +13°C° 0 mm 2 m/s 738 mmHg 81%
04:00 +13°C° 0 mm 2 m/s 738 mmHg 83%
05:00 +13°C° 0 mm 2 m/s 738 mmHg 84%
06:00 +14°C° 0 mm 2 m/s 738 mmHg 79%
07:00 +16°C° 0 mm 3 m/s 738 mmHg 75%
08:00 +18°C° 0 mm 3 m/s 738 mmHg 71%
09:00 +19°C° 0 mm 3 m/s 739 mmHg 65%
10:00 +21°C° 0 mm 3 m/s 739 mmHg 60%
11:00 +22°C° 0 mm 3 m/s 739 mmHg 54%
12:00 +24°C° 0 mm 3 m/s 739 mmHg 51%
13:00 +24°C° 0 mm 3 m/s 738 mmHg 49%
14:00 +25°C° 0 mm 3 m/s 738 mmHg 46%
15:00 +25°C° 0 mm 3 m/s 738 mmHg 48%
16:00 +24°C° 0 mm 3 m/s 738 mmHg 50%
17:00 +24°C° 0 mm 3 m/s 738 mmHg 52%
18:00 +21°C° 0 mm 3 m/s 738 mmHg 58%
19:00 +19°C° 0 mm 3 m/s 738 mmHg 64%
20:00 +17°C° 0 mm 3 m/s 738 mmHg 70%
21:00 +17°C° 0 mm 3 m/s 738 mmHg 71%
22:00 +16°C° 0 mm 3 m/s 738 mmHg 72%
23:00 +15°C° 0 mm 2 m/s 739 mmHg 73%

16 August, Duminică

Timp Temperatura Precipitaţii Vânt Presiune Umiditate
00:00 +14°C° 0 mm 2 m/s 739 mmHg 75%
01:00 +14°C° 0 mm 2 m/s 739 mmHg 77%
02:00 +13°C° 0 mm 2 m/s 739 mmHg 79%
03:00 +13°C° 0 mm 2 m/s 739 mmHg 79%
04:00 +12°C° 0 mm 1 m/s 739 mmHg 80%
05:00 +12°C° 0 mm 1 m/s 739 mmHg 80%
06:00 +14°C° 0 mm 1 m/s 739 mmHg 74%
07:00 +16°C° 0 mm 1 m/s 739 mmHg 68%
08:00 +19°C° 0 mm 1 m/s 740 mmHg 62%
09:00 +19°C° 0 mm 2 m/s 740 mmHg 57%
10:00 +20°C° 0 mm 2 m/s 740 mmHg 52%
11:00 +21°C° 0 mm 3 m/s 740 mmHg 46%
12:00 +22°C° 0 mm 3 m/s 740 mmHg 45%
13:00 +22°C° 0 mm 3 m/s 740 mmHg 43%
14:00 +24°C° 0 mm 3 m/s 740 mmHg 41%
15:00 +24°C° 0 mm 2 m/s 740 mmHg 42%
16:00 +24°C° 0 mm 2 m/s 740 mmHg 44%
17:00 +23°C° 0 mm 2 m/s 740 mmHg 45%
18:00 +20°C° 0 mm 2 m/s 740 mmHg 50%
19:00 +19°C° 0 mm 1 m/s 740 mmHg 56%
20:00 +16°C° 0 mm 1 m/s 740 mmHg 62%
21:00 +16°C° 0 mm 1 m/s 740 mmHg 64%
22:00 +14°C° 0 mm 0 m/s 740 mmHg 66%
23:00 +13°C° 0 mm 0 m/s 740 mmHg 69%
Arată mai mult